This is the latest recevied weather packets stored in our database for station/object LU8FCJ-5. If no packets are shown the sender has not sent any weather packets the latest 10 day(s).
| Time | Temp. | Humidity | Pressure | Rain* | Wind** | Luminosity | Snow |
|---|---|---|---|---|---|---|---|
| 1778270034 | 12.78° C | 32% | 1007.6 hPa | 0 mm | - | - | - |
| 1778269724 | 12.22° C | 31% | 1007.7 hPa | 0 mm | - | - | - |
| 1778269414 | 12.78° C | 31% | 1007.3 hPa | 0 mm | - | - | - |
| 1778269104 | 12.78° C | 30% | 1007.1 hPa | 0 mm | - | - | - |
| 1778268794 | 12.78° C | 32% | 1007.3 hPa | 0 mm | - | - | - |
| 1778268487 | 12.78° C | 30% | 1007.3 hPa | 0 mm | - | - | - |
| 1778268177 | 12.78° C | 29% | 1007.3 hPa | 0 mm | - | - | - |
| 1778267866 | 13.33° C | 28% | 1007.4 hPa | 0 mm | - | - | - |
| 1778267557 | 13.33° C | 27% | 1007.5 hPa | 0 mm | - | - | - |
| 1778267248 | 13.33° C | 27% | 1007.5 hPa | 0 mm | - | - | - |
| 1778266937 | 13.89° C | 28% | 1007.3 hPa | 0 mm | - | - | - |
| 1778266626 | 13.89° C | 27% | 1007.2 hPa | 0 mm | - | - | - |
| 1778266316 | 13.89° C | 27% | 1007.7 hPa | 0 mm | - | - | - |
| 1778266006 | 13.89° C | 28% | 1007.4 hPa | 0 mm | - | - | - |
| 1778265696 | 13.89° C | 28% | 1007.5 hPa | 0 mm | - | - | - |
| 1778265386 | 13.33° C | 29% | 1007.5 hPa | 0 mm | - | - | - |
| 1778265075 | 13.89° C | 29% | 1007.6 hPa | 0 mm | - | - | - |
| 1778264766 | 14.44° C | 32% | 1007.5 hPa | 0 mm | - | - | - |
| 1778264455 | 14.44° C | 31% | 1007.5 hPa | 0 mm | - | - | - |
| 1778264145 | 13.89° C | 32% | 1007.6 hPa | 0 mm | - | - | - |
| 1778263836 | 13.89° C | 32% | 1007.4 hPa | 0 mm | - | - | - |
| 1778263525 | 13.89° C | 33% | 1007.5 hPa | 0 mm | - | - | - |
| 1778263214 | 13.89° C | 31% | 1007.6 hPa | 0 mm | - | - | - |
| 1778262905 | 13.89° C | 33% | 1007.7 hPa | 0 mm | - | - | - |
| 1778262594 | 13.89° C | 32% | 1007.6 hPa | 0 mm | - | - | - |
* Rain latest hour (hover to see other rain measurements)
** Current wind speed in m/s (hover to see current wind gust speed)